Year,Month,Day,Hour,Minute,Value (Times are PST for temperature in C)
2018,04,27,00,00,14.00
2018,04,27,00,01,14.00
2018,04,27,00,02,14.00
2018,04,27,00,03,14.00
2018,04,27,00,04,14.00
2018,04,27,00,05,14.00
2018,04,27,00,06,13.90
2018,04,27,00,07,13.90
2018,04,27,00,08,13.90
2018,04,27,00,09,13.80
2018,04,27,00,10,13.80
2018,04,27,00,11,13.70
2018,04,27,00,12,13.70
2018,04,27,00,13,13.60
2018,04,27,00,14,13.60
2018,04,27,00,15,13.50
2018,04,27,00,16,13.50
2018,04,27,00,17,13.50
2018,04,27,00,18,13.50
2018,04,27,00,19,13.40
2018,04,27,00,20,13.40
2018,04,27,00,21,13.40
2018,04,27,00,22,13.40
2018,04,27,00,23,13.40
2018,04,27,00,24,13.30
2018,04,27,00,25,13.30
2018,04,27,00,26,13.30
2018,04,27,00,27,13.30
2018,04,27,00,28,13.30
2018,04,27,00,29,13.30
2018,04,27,00,30,13.30
2018,04,27,00,31,13.30
2018,04,27,00,32,13.30
2018,04,27,00,33,13.20
2018,04,27,00,34,13.20
2018,04,27,00,35,13.20
2018,04,27,00,36,13.20
2018,04,27,00,37,13.20
2018,04,27,00,38,13.20
2018,04,27,00,39,13.20
2018,04,27,00,40,13.10
2018,04,27,00,41,13.10
2018,04,27,00,42,13.10
2018,04,27,00,43,13.10
2018,04,27,00,44,13.10
2018,04,27,00,45,13.10
2018,04,27,00,46,13.00
2018,04,27,00,47,13.00
2018,04,27,00,48,13.00
2018,04,27,00,49,12.90
2018,04,27,00,50,12.90
2018,04,27,00,51,12.90
2018,04,27,00,52,12.90
2018,04,27,00,53,12.90
2018,04,27,00,54,12.80
2018,04,27,00,55,12.80
2018,04,27,00,56,12.80
2018,04,27,00,57,12.80
2018,04,27,00,58,12.80
2018,04,27,00,59,12.80
2018,04,27,01,00,12.80
2018,04,27,01,01,12.80
2018,04,27,01,02,12.80
2018,04,27,01,03,12.80
2018,04,27,01,04,12.80
2018,04,27,01,05,12.80
2018,04,27,01,06,12.80
2018,04,27,01,07,12.80
2018,04,27,01,08,12.80
2018,04,27,01,09,12.80
2018,04,27,01,10,12.80
2018,04,27,01,11,12.80
2018,04,27,01,12,12.80
2018,04,27,01,13,12.70
2018,04,27,01,14,12.70
2018,04,27,01,15,12.70
2018,04,27,01,16,12.70
2018,04,27,01,17,12.70
2018,04,27,01,18,12.70
2018,04,27,01,19,12.70
2018,04,27,01,20,12.70
2018,04,27,01,21,12.70
2018,04,27,01,22,12.80
2018,04,27,01,23,12.80
2018,04,27,01,24,12.80
2018,04,27,01,25,12.80
2018,04,27,01,26,12.80
2018,04,27,01,27,12.80
2018,04,27,01,28,12.80
2018,04,27,01,29,12.80
2018,04,27,01,30,12.80
2018,04,27,01,31,12.80
2018,04,27,01,32,12.80
2018,04,27,01,33,12.80
2018,04,27,01,34,12.80
2018,04,27,01,35,12.80
2018,04,27,01,36,12.80
2018,04,27,01,37,12.80
2018,04,27,01,38,12.80
2018,04,27,01,39,12.70
2018,04,27,01,40,12.70
2018,04,27,01,41,12.70
2018,04,27,01,42,12.70
2018,04,27,01,43,12.70
2018,04,27,01,44,12.70
2018,04,27,01,45,12.70
2018,04,27,01,46,12.60
2018,04,27,01,47,12.60
2018,04,27,01,48,12.60
2018,04,27,01,49,12.60
2018,04,27,01,50,12.50
2018,04,27,01,51,12.50
2018,04,27,01,52,12.50
2018,04,27,01,53,12.40
2018,04,27,01,54,12.40
2018,04,27,01,55,12.40
2018,04,27,01,56,12.30
2018,04,27,01,57,12.30
2018,04,27,01,58,12.30
2018,04,27,01,59,12.30
2018,04,27,02,00,12.20
2018,04,27,02,01,12.20
2018,04,27,02,02,12.20
2018,04,27,02,03,12.20
2018,04,27,02,04,12.20
2018,04,27,02,05,12.10
2018,04,27,02,06,12.10
2018,04,27,02,07,12.10
2018,04,27,02,08,12.10
2018,04,27,02,09,12.10
2018,04,27,02,10,12.00
2018,04,27,02,11,12.00
2018,04,27,02,12,11.90
2018,04,27,02,13,11.90
2018,04,27,02,14,11.90
2018,04,27,02,15,11.90
2018,04,27,02,16,11.90
2018,04,27,02,17,11.80
2018,04,27,02,18,11.80
2018,04,27,02,19,11.80
2018,04,27,02,20,11.80
2018,04,27,02,21,11.80
2018,04,27,02,22,11.80
2018,04,27,02,23,11.70
2018,04,27,02,24,11.70
2018,04,27,02,25,11.70
2018,04,27,02,26,11.70
2018,04,27,02,27,11.70
2018,04,27,02,28,11.70
2018,04,27,02,29,11.70
2018,04,27,02,30,11.70
2018,04,27,02,31,11.60
2018,04,27,02,32,11.60
2018,04,27,02,33,11.60
2018,04,27,02,34,11.60
2018,04,27,02,35,11.60
2018,04,27,02,36,11.60
2018,04,27,02,37,11.60
2018,04,27,02,38,11.60
2018,04,27,02,39,11.60
2018,04,27,02,40,11.60
2018,04,27,02,41,11.60
2018,04,27,02,42,11.50
2018,04,27,02,43,11.50
2018,04,27,02,44,11.50
2018,04,27,02,45,11.50
2018,04,27,02,46,11.40
2018,04,27,02,47,11.40
2018,04,27,02,48,11.40
2018,04,27,02,49,11.40
2018,04,27,02,50,11.40
2018,04,27,02,51,11.40
2018,04,27,02,52,11.30
2018,04,27,02,53,11.30
2018,04,27,02,54,11.30
2018,04,27,02,55,11.30
2018,04,27,02,56,11.30
2018,04,27,02,57,11.30
2018,04,27,02,58,11.30
2018,04,27,02,59,11.30
2018,04,27,03,00,11.30
2018,04,27,03,01,11.30
2018,04,27,03,02,11.20
2018,04,27,03,03,11.20
2018,04,27,03,04,11.20
2018,04,27,03,05,11.20
2018,04,27,03,06,11.20
2018,04,27,03,07,11.20
2018,04,27,03,08,11.20
2018,04,27,03,09,11.20
2018,04,27,03,10,11.20
2018,04,27,03,11,11.20
2018,04,27,03,12,11.20
2018,04,27,03,13,11.20
2018,04,27,03,14,11.20
2018,04,27,03,15,11.20
2018,04,27,03,16,11.20
2018,04,27,03,17,11.20
2018,04,27,03,18,11.20
2018,04,27,03,19,11.20
2018,04,27,03,20,11.20
2018,04,27,03,21,11.20
2018,04,27,03,22,11.20
2018,04,27,03,23,11.20
2018,04,27,03,24,11.20
2018,04,27,03,25,11.20
2018,04,27,03,26,11.20
2018,04,27,03,27,11.20
2018,04,27,03,28,11.20
2018,04,27,03,29,11.20
2018,04,27,03,30,11.20
2018,04,27,03,31,11.20
2018,04,27,03,32,11.20
2018,04,27,03,33,11.20
2018,04,27,03,34,11.20
2018,04,27,03,35,11.20
2018,04,27,03,36,11.20
2018,04,27,03,37,11.20
2018,04,27,03,38,11.20
2018,04,27,03,39,11.10
2018,04,27,03,40,11.10
2018,04,27,03,41,11.10
2018,04,27,03,42,11.10
2018,04,27,03,43,11.10
2018,04,27,03,44,11.10
2018,04,27,03,45,11.10
2018,04,27,03,46,11.10
2018,04,27,03,47,11.10
2018,04,27,03,48,11.10
2018,04,27,03,49,11.10
2018,04,27,03,50,11.10
2018,04,27,03,51,11.10
2018,04,27,03,52,11.10
2018,04,27,03,53,11.20
2018,04,27,03,54,11.20
2018,04,27,03,55,11.20
2018,04,27,03,56,11.30
2018,04,27,03,57,11.30
2018,04,27,03,58,11.40
2018,04,27,03,59,11.40
2018,04,27,04,00,11.50
2018,04,27,04,01,11.60
2018,04,27,04,02,11.60
2018,04,27,04,03,11.70
2018,04,27,04,04,11.70
2018,04,27,04,05,11.80
2018,04,27,04,06,11.80
2018,04,27,04,07,11.80
2018,04,27,04,08,11.90
2018,04,27,04,09,11.90
2018,04,27,04,10,11.90
2018,04,27,04,11,11.90
2018,04,27,04,12,11.90
2018,04,27,04,13,11.90
2018,04,27,04,14,11.90
2018,04,27,04,15,12.00
2018,04,27,04,16,12.00
2018,04,27,04,17,12.00
2018,04,27,04,18,12.00
2018,04,27,04,19,12.00
2018,04,27,04,20,12.00
2018,04,27,04,21,12.00
2018,04,27,04,22,12.00
2018,04,27,04,23,12.00
2018,04,27,04,24,11.90
2018,04,27,04,25,11.90
2018,04,27,04,26,11.90
2018,04,27,04,27,11.90
2018,04,27,04,28,11.90
2018,04,27,04,29,11.90
2018,04,27,04,30,11.90
2018,04,27,04,31,12.00
2018,04,27,04,32,12.00
2018,04,27,04,33,12.00
2018,04,27,04,34,12.00
2018,04,27,04,35,12.00
2018,04,27,04,36,12.10
2018,04,27,04,37,12.10
2018,04,27,04,38,12.10
2018,04,27,04,39,12.10
2018,04,27,04,40,12.10
2018,04,27,04,41,12.10
2018,04,27,04,42,12.10
2018,04,27,04,43,12.10
2018,04,27,04,44,12.10
2018,04,27,04,45,12.10
2018,04,27,04,46,12.20
2018,04,27,04,47,12.20
2018,04,27,04,48,12.20
2018,04,27,04,49,12.20
2018,04,27,04,50,12.20
2018,04,27,04,51,12.20
2018,04,27,04,52,12.10
2018,04,27,04,53,12.10
2018,04,27,04,54,12.10
2018,04,27,04,55,12.10
2018,04,27,04,56,12.10
2018,04,27,04,57,12.10
2018,04,27,04,58,12.10
2018,04,27,04,59,12.10
2018,04,27,05,00,12.10
2018,04,27,05,01,12.10
2018,04,27,05,02,12.10
2018,04,27,05,03,12.10
2018,04,27,05,04,12.10
2018,04,27,05,05,12.10
2018,04,27,05,06,12.00
2018,04,27,05,07,12.00
2018,04,27,05,08,12.00
2018,04,27,05,09,12.00
2018,04,27,05,10,12.00
2018,04,27,05,11,11.90
2018,04,27,05,12,11.90
2018,04,27,05,13,11.90
2018,04,27,05,14,11.90
2018,04,27,05,15,11.90
2018,04,27,05,16,11.90
2018,04,27,05,17,11.90
2018,04,27,05,18,11.80
2018,04,27,05,19,11.80
2018,04,27,05,20,11.80
2018,04,27,05,21,11.80
2018,04,27,05,22,11.80
2018,04,27,05,23,11.80
2018,04,27,05,24,11.80
2018,04,27,05,25,11.80
2018,04,27,05,26,11.70
2018,04,27,05,27,11.70
2018,04,27,05,28,11.70
2018,04,27,05,29,11.70
2018,04,27,05,30,11.70
2018,04,27,05,31,11.70
2018,04,27,05,32,11.70
2018,04,27,05,33,11.70
2018,04,27,05,34,11.60
2018,04,27,05,35,11.60
2018,04,27,05,36,11.60
2018,04,27,05,37,11.60
2018,04,27,05,38,11.60
2018,04,27,05,39,11.60
2018,04,27,05,40,11.50
2018,04,27,05,41,11.50
2018,04,27,05,42,11.50
2018,04,27,05,43,11.40
2018,04,27,05,44,11.40
2018,04,27,05,45,11.40
2018,04,27,05,46,11.40
2018,04,27,05,47,11.40
2018,04,27,05,48,11.40
2018,04,27,05,49,11.30
2018,04,27,05,50,11.30
2018,04,27,05,51,11.30
2018,04,27,05,52,11.30
2018,04,27,05,53,11.30
2018,04,27,05,54,11.30
2018,04,27,05,55,11.30
2018,04,27,05,56,11.30
2018,04,27,05,57,11.20
2018,04,27,05,58,11.20
2018,04,27,05,59,11.20
2018,04,27,06,00,11.20
2018,04,27,06,01,11.20
2018,04,27,06,02,11.10
2018,04,27,06,03,11.10
2018,04,27,06,04,11.10
2018,04,27,06,05,11.00
2018,04,27,06,06,11.00
2018,04,27,06,07,11.00
2018,04,27,06,08,10.90
2018,04,27,06,09,10.90
2018,04,27,06,10,10.90
2018,04,27,06,11,10.90
2018,04,27,06,12,10.90
2018,04,27,06,13,10.80
2018,04,27,06,14,10.80
2018,04,27,06,15,10.80
2018,04,27,06,16,10.80
2018,04,27,06,17,10.70
2018,04,27,06,18,10.70
2018,04,27,06,19,10.70
2018,04,27,06,20,10.70
2018,04,27,06,21,10.70
2018,04,27,06,22,10.60
2018,04,27,06,23,10.60
2018,04,27,06,24,10.60
2018,04,27,06,25,10.60
2018,04,27,06,26,10.60
2018,04,27,06,27,10.50
2018,04,27,06,28,10.50
2018,04,27,06,29,10.50
2018,04,27,06,30,10.40
2018,04,27,06,31,10.30
2018,04,27,06,32,10.30
2018,04,27,06,33,10.30
2018,04,27,06,34,10.20
2018,04,27,06,35,10.20
2018,04,27,06,36,10.20
2018,04,27,06,37,10.10
2018,04,27,06,38,10.10
2018,04,27,06,39,10.00
2018,04,27,06,40,10.00
2018,04,27,06,41,10.00
2018,04,27,06,42,9.90
2018,04,27,06,43,9.90
2018,04,27,06,44,9.90
2018,04,27,06,45,9.90
2018,04,27,06,46,9.90
2018,04,27,06,47,9.90
2018,04,27,06,48,9.90
2018,04,27,06,49,9.90
2018,04,27,06,50,9.90
2018,04,27,06,51,9.90
2018,04,27,06,52,9.90
2018,04,27,06,53,9.90
2018,04,27,06,54,9.90
2018,04,27,06,55,9.90
2018,04,27,06,56,9.90
2018,04,27,06,57,9.90
2018,04,27,06,58,9.90
2018,04,27,06,59,9.90
2018,04,27,07,00,9.90
2018,04,27,07,01,10.00
2018,04,27,07,02,10.00
2018,04,27,07,03,10.10
2018,04,27,07,04,10.10
2018,04,27,07,05,10.20
2018,04,27,07,06,10.20
2018,04,27,07,07,10.20
2018,04,27,07,08,10.20
2018,04,27,07,09,10.30
2018,04,27,07,10,10.30
2018,04,27,07,11,10.30
2018,04,27,07,12,10.30
2018,04,27,07,13,10.30
2018,04,27,07,14,10.40
2018,04,27,07,15,10.40
2018,04,27,07,16,10.40
2018,04,27,07,17,10.50
2018,04,27,07,18,10.50
2018,04,27,07,19,10.60
2018,04,27,07,20,10.60
2018,04,27,07,21,10.70
2018,04,27,07,22,10.70
2018,04,27,07,23,10.80
2018,04,27,07,24,10.80
2018,04,27,07,25,10.90
2018,04,27,07,26,11.00
2018,04,27,07,27,11.10
2018,04,27,07,28,11.10
2018,04,27,07,29,11.20
2018,04,27,07,30,11.30
2018,04,27,07,31,11.30
2018,04,27,07,32,11.40
2018,04,27,07,33,11.50
2018,04,27,07,34,11.50
2018,04,27,07,35,11.60
2018,04,27,07,36,11.60
2018,04,27,07,37,11.70
2018,04,27,07,38,11.80
2018,04,27,07,39,11.80
2018,04,27,07,40,11.90
2018,04,27,07,41,11.90
2018,04,27,07,42,12.00
2018,04,27,07,43,12.10
2018,04,27,07,44,12.20
2018,04,27,07,45,12.20
2018,04,27,07,46,12.30
2018,04,27,07,47,12.40
2018,04,27,07,48,12.40
2018,04,27,07,49,12.50
2018,04,27,07,50,12.60
2018,04,27,07,51,12.60
2018,04,27,07,52,12.70
2018,04,27,07,53,12.80
2018,04,27,07,54,12.80
2018,04,27,07,55,12.90
2018,04,27,07,56,13.00
2018,04,27,07,57,13.00
2018,04,27,07,58,13.10
2018,04,27,07,59,13.20
2018,04,27,08,00,13.30
2018,04,27,08,01,13.30
2018,04,27,08,02,13.40
2018,04,27,08,03,13.40
2018,04,27,08,04,13.50
2018,04,27,08,05,13.60
2018,04,27,08,06,13.70
2018,04,27,08,07,13.80
2018,04,27,08,08,13.80
2018,04,27,08,09,13.80
2018,04,27,08,10,13.80
2018,04,27,08,11,13.80
2018,04,27,08,12,13.80
2018,04,27,08,13,13.80
2018,04,27,08,14,13.70
2018,04,27,08,15,13.60
2018,04,27,08,16,13.60
2018,04,27,08,17,13.50
2018,04,27,08,18,13.40
2018,04,27,08,19,13.30
2018,04,27,08,20,13.30
2018,04,27,08,21,13.20
2018,04,27,08,22,13.20
2018,04,27,08,23,13.10
2018,04,27,08,24,13.10
2018,04,27,08,25,13.00
2018,04,27,08,26,13.00
2018,04,27,08,27,12.90
2018,04,27,08,28,12.80
2018,04,27,08,29,12.80
2018,04,27,08,30,12.70
2018,04,27,08,31,12.60
2018,04,27,08,32,12.60
2018,04,27,08,33,12.60
2018,04,27,08,34,12.50
2018,04,27,08,35,12.50
2018,04,27,08,36,12.50
2018,04,27,08,37,12.40
2018,04,27,08,38,12.50
2018,04,27,08,39,12.40
2018,04,27,08,40,12.40
2018,04,27,08,41,12.40
2018,04,27,08,42,12.40
2018,04,27,08,43,12.40
2018,04,27,08,44,12.50
2018,04,27,08,45,12.40
2018,04,27,08,46,12.40
2018,04,27,08,47,12.40
2018,04,27,08,48,12.40
2018,04,27,08,49,12.40
2018,04,27,08,50,12.40
2018,04,27,08,51,12.40
2018,04,27,08,52,12.40
2018,04,27,08,53,12.40
2018,04,27,08,54,12.40
2018,04,27,08,55,12.50
2018,04,27,08,56,12.50
2018,04,27,08,57,12.50
2018,04,27,08,58,12.60
2018,04,27,08,59,12.60
2018,04,27,09,00,12.60
2018,04,27,09,01,12.70
2018,04,27,09,02,12.70
2018,04,27,09,03,12.80
2018,04,27,09,04,12.80
2018,04,27,09,05,12.90
2018,04,27,09,06,12.90
2018,04,27,09,07,13.00
2018,04,27,09,08,13.10
2018,04,27,09,09,13.10
2018,04,27,09,10,13.20
2018,04,27,09,11,13.20
2018,04,27,09,12,13.30
2018,04,27,09,13,13.40
2018,04,27,09,14,13.40
2018,04,27,09,15,13.50
2018,04,27,09,16,13.60
2018,04,27,09,17,13.60
2018,04,27,09,18,13.70
2018,04,27,09,19,13.80
2018,04,27,09,20,13.80
2018,04,27,09,21,13.90
2018,04,27,09,22,14.00
2018,04,27,09,23,14.10
2018,04,27,09,24,14.10
2018,04,27,09,25,14.20
2018,04,27,09,26,14.20
2018,04,27,09,27,14.20
2018,04,27,09,28,14.30
2018,04,27,09,29,14.30
2018,04,27,09,30,14.30
2018,04,27,09,31,14.30
2018,04,27,09,32,14.30
2018,04,27,09,33,14.30
2018,04,27,09,34,14.40
2018,04,27,09,35,14.40
2018,04,27,09,36,14.40
2018,04,27,09,37,14.30
2018,04,27,09,38,14.30
2018,04,27,09,39,14.20
2018,04,27,09,40,14.10
2018,04,27,09,41,14.10
2018,04,27,09,42,14.10
2018,04,27,09,43,14.00
2018,04,27,09,44,14.00
2018,04,27,09,45,14.00
2018,04,27,09,46,13.90
2018,04,27,09,47,13.90
2018,04,27,09,48,13.80
2018,04,27,09,49,13.70
2018,04,27,09,50,13.70
2018,04,27,09,51,13.70
2018,04,27,09,52,13.70
2018,04,27,09,53,13.70
2018,04,27,09,54,13.70
2018,04,27,09,55,13.80
2018,04,27,09,56,13.80
2018,04,27,09,57,13.80
2018,04,27,09,58,13.80
2018,04,27,09,59,13.80
2018,04,27,10,00,13.80
2018,04,27,10,01,13.80
2018,04,27,10,02,13.80
2018,04,27,10,03,13.80
2018,04,27,10,04,13.80
2018,04,27,10,05,13.80
2018,04,27,10,06,13.80
2018,04,27,10,07,13.90
2018,04,27,10,08,13.90
2018,04,27,10,09,13.90
2018,04,27,10,10,13.90
2018,04,27,10,11,14.00
2018,04,27,10,12,14.00
2018,04,27,10,13,14.10
2018,04,27,10,14,14.20
2018,04,27,10,15,14.20
2018,04,27,10,16,14.20
2018,04,27,10,17,14.30
2018,04,27,10,18,14.30
2018,04,27,10,19,14.30
2018,04,27,10,20,14.20
2018,04,27,10,21,14.20
2018,04,27,10,22,14.20
2018,04,27,10,23,14.20
2018,04,27,10,24,14.20
2018,04,27,10,25,14.10
2018,04,27,10,26,14.10
2018,04,27,10,27,14.10
2018,04,27,10,28,14.10
2018,04,27,10,29,14.10
2018,04,27,10,30,14.20
2018,04,27,10,31,14.20
2018,04,27,10,32,14.20
2018,04,27,10,33,14.20
2018,04,27,10,34,14.30
2018,04,27,10,35,14.30
2018,04,27,10,36,14.30
2018,04,27,10,37,14.30
2018,04,27,10,38,14.40
2018,04,27,10,39,14.40
2018,04,27,10,40,14.50
2018,04,27,10,41,14.50
2018,04,27,10,42,14.60
2018,04,27,10,43,14.70
2018,04,27,10,44,14.70
2018,04,27,10,45,14.80
2018,04,27,10,46,14.90
2018,04,27,10,47,15.00
2018,04,27,10,48,15.00
2018,04,27,10,49,15.10
2018,04,27,10,50,15.20
2018,04,27,10,51,15.30
2018,04,27,10,52,15.50
2018,04,27,10,53,15.60
2018,04,27,10,54,15.80
2018,04,27,10,55,15.90
2018,04,27,10,56,15.90
2018,04,27,10,57,16.00
2018,04,27,10,58,16.10
2018,04,27,10,59,16.20
2018,04,27,11,00,16.30
2018,04,27,11,01,16.50
2018,04,27,11,02,16.60
2018,04,27,11,03,16.70
2018,04,27,11,04,16.90
2018,04,27,11,05,17.00
2018,04,27,11,06,17.10
2018,04,27,11,07,17.20
2018,04,27,11,08,17.30
2018,04,27,11,09,17.30
2018,04,27,11,10,17.40
2018,04,27,11,11,17.40
2018,04,27,11,12,17.40
2018,04,27,11,13,17.30
2018,04,27,11,14,17.20
2018,04,27,11,15,17.10
2018,04,27,11,16,17.10
2018,04,27,11,17,17.00
2018,04,27,11,18,16.90
2018,04,27,11,19,16.90
2018,04,27,11,20,16.90
2018,04,27,11,21,16.90
2018,04,27,11,22,16.90
2018,04,27,11,23,16.90
2018,04,27,11,24,16.90
2018,04,27,11,25,16.90
2018,04,27,11,26,16.90
2018,04,27,11,27,17.00
2018,04,27,11,28,17.10
2018,04,27,11,29,17.10
2018,04,27,11,30,17.10
2018,04,27,11,31,17.10
2018,04,27,11,32,17.00
2018,04,27,11,33,17.00
2018,04,27,11,34,17.00
2018,04,27,11,35,17.00
2018,04,27,11,36,17.00
2018,04,27,11,37,17.00
2018,04,27,11,38,17.00
2018,04,27,11,39,17.00
2018,04,27,11,40,17.10
2018,04,27,11,41,17.00
2018,04,27,11,42,17.00
2018,04,27,11,43,17.00
2018,04,27,11,44,16.90
2018,04,27,11,45,17.00
2018,04,27,11,46,17.00
2018,04,27,11,47,17.10
2018,04,27,11,48,17.20
2018,04,27,11,49,17.20
2018,04,27,11,50,17.20
2018,04,27,11,51,17.20
2018,04,27,11,52,17.20
2018,04,27,11,53,17.20
2018,04,27,11,54,17.30
2018,04,27,11,55,17.30
2018,04,27,11,56,17.30
2018,04,27,11,57,17.40
2018,04,27,11,58,17.40
2018,04,27,11,59,17.40
2018,04,27,12,00,17.40
2018,04,27,12,01,17.40
2018,04,27,12,02,17.40
2018,04,27,12,03,17.40
2018,04,27,12,04,17.40
2018,04,27,12,05,17.40
2018,04,27,12,06,17.40
2018,04,27,12,07,17.40
2018,04,27,12,08,17.40
2018,04,27,12,09,17.50
2018,04,27,12,10,17.60
2018,04,27,12,11,17.70
2018,04,27,12,12,17.80
2018,04,27,12,13,17.80
2018,04,27,12,14,17.80
2018,04,27,12,15,17.80
2018,04,27,12,16,17.80
2018,04,27,12,17,17.80
2018,04,27,12,18,17.80
2018,04,27,12,19,17.70
2018,04,27,12,20,17.70
2018,04,27,12,21,17.70
2018,04,27,12,22,17.80
2018,04,27,12,23,17.80
2018,04,27,12,24,17.80
2018,04,27,12,25,17.80
2018,04,27,12,26,17.80
2018,04,27,12,27,17.80
2018,04,27,12,28,17.80
2018,04,27,12,29,17.80
2018,04,27,12,30,17.80
2018,04,27,12,31,17.80
2018,04,27,12,32,17.80
2018,04,27,12,33,17.80
2018,04,27,12,34,17.80
2018,04,27,12,35,17.80
2018,04,27,12,36,17.80
2018,04,27,12,37,17.90
2018,04,27,12,38,17.90
2018,04,27,12,39,17.80
2018,04,27,12,40,17.80
2018,04,27,12,41,17.80
2018,04,27,12,42,17.80
2018,04,27,12,43,17.80
2018,04,27,12,44,17.80
2018,04,27,12,45,17.90
2018,04,27,12,46,17.90
2018,04,27,12,47,17.90
2018,04,27,12,48,17.90
2018,04,27,12,49,17.90
2018,04,27,12,50,17.90
2018,04,27,12,51,17.90
2018,04,27,12,52,17.90
2018,04,27,12,53,17.80
2018,04,27,12,54,17.80
2018,04,27,12,55,17.80
2018,04,27,12,56,17.80
2018,04,27,12,57,17.80
2018,04,27,12,58,17.70
2018,04,27,12,59,17.70
2018,04,27,13,00,17.70
2018,04,27,13,01,17.60
2018,04,27,13,02,17.60
2018,04,27,13,03,17.70
2018,04,27,13,04,17.70
2018,04,27,13,05,17.70
2018,04,27,13,06,17.70
2018,04,27,13,07,17.70
2018,04,27,13,08,17.70
2018,04,27,13,09,17.60
2018,04,27,13,10,17.60
2018,04,27,13,11,17.60
2018,04,27,13,12,17.60
2018,04,27,13,13,17.60
2018,04,27,13,14,17.60
2018,04,27,13,15,17.60
2018,04,27,13,16,17.60
2018,04,27,13,17,17.60
2018,04,27,13,18,17.60
2018,04,27,13,19,17.60
2018,04,27,13,20,17.60
2018,04,27,13,21,17.50
2018,04,27,13,22,17.50
2018,04,27,13,23,17.40
2018,04,27,13,24,17.40
2018,04,27,13,25,17.40
2018,04,27,13,26,17.40
2018,04,27,13,27,17.40
2018,04,27,13,28,17.40
2018,04,27,13,29,17.40
2018,04,27,13,30,17.30
2018,04,27,13,31,17.30
2018,04,27,13,32,17.30
2018,04,27,13,33,17.30
2018,04,27,13,34,17.30
2018,04,27,13,35,17.30
2018,04,27,13,36,17.40
2018,04,27,13,37,17.40
2018,04,27,13,38,17.40
2018,04,27,13,39,17.40
2018,04,27,13,40,17.40
2018,04,27,13,41,17.40
2018,04,27,13,42,17.30
2018,04,27,13,43,17.30
2018,04,27,13,44,17.30
2018,04,27,13,45,17.30
2018,04,27,13,46,17.40
2018,04,27,13,47,17.40
2018,04,27,13,48,17.50
2018,04,27,13,49,17.50
2018,04,27,13,50,17.60
2018,04,27,13,51,17.60
2018,04,27,13,52,17.70
2018,04,27,13,53,17.80
2018,04,27,13,54,17.80
2018,04,27,13,55,17.80
2018,04,27,13,56,17.80
2018,04,27,13,57,17.80
2018,04,27,13,58,17.90
2018,04,27,13,59,17.90
2018,04,27,14,00,18.00
2018,04,27,14,01,18.00
2018,04,27,14,02,18.10
2018,04,27,14,03,18.10
2018,04,27,14,04,18.10
2018,04,27,14,05,18.10
2018,04,27,14,06,18.00
2018,04,27,14,07,18.00
2018,04,27,14,08,18.00
2018,04,27,14,09,18.00
2018,04,27,14,10,17.90
2018,04,27,14,11,17.90
2018,04,27,14,12,17.90
2018,04,27,14,13,17.90
2018,04,27,14,14,17.90
2018,04,27,14,15,17.80
2018,04,27,14,16,17.80
2018,04,27,14,17,17.80
2018,04,27,14,18,17.70
2018,04,27,14,19,17.70
2018,04,27,14,20,17.70
2018,04,27,14,21,17.70
2018,04,27,14,22,17.70
2018,04,27,14,23,17.80
2018,04,27,14,24,17.80
2018,04,27,14,25,17.90
2018,04,27,14,26,17.90
2018,04,27,14,27,17.90
2018,04,27,14,28,18.00
2018,04,27,14,29,18.00
2018,04,27,14,30,18.00
2018,04,27,14,31,18.00
2018,04,27,14,32,18.00
2018,04,27,14,33,18.00
2018,04,27,14,34,18.00
2018,04,27,14,35,18.00
2018,04,27,14,36,18.00
2018,04,27,14,37,18.00
2018,04,27,14,38,17.90
2018,04,27,14,39,17.90
2018,04,27,14,40,17.90
2018,04,27,14,41,17.80
2018,04,27,14,42,17.70
2018,04,27,14,43,17.60
2018,04,27,14,44,17.60
2018,04,27,14,45,17.60
2018,04,27,14,46,17.60
2018,04,27,14,47,17.60
2018,04,27,14,48,17.60
2018,04,27,14,49,17.60
2018,04,27,14,50,17.60
2018,04,27,14,51,17.60
2018,04,27,14,52,17.60
2018,04,27,14,53,17.60
2018,04,27,14,54,17.60
2018,04,27,14,55,17.60
2018,04,27,14,56,17.60
2018,04,27,14,57,17.60
2018,04,27,14,58,17.60
2018,04,27,14,59,17.60
2018,04,27,15,00,17.70
2018,04,27,15,01,17.70
2018,04,27,15,02,17.70
2018,04,27,15,03,17.70
2018,04,27,15,04,17.70
2018,04,27,15,05,17.70
2018,04,27,15,06,17.60
2018,04,27,15,07,17.50
2018,04,27,15,08,17.40
2018,04,27,15,09,17.30
2018,04,27,15,10,17.20
2018,04,27,15,11,17.10
2018,04,27,15,12,17.00
2018,04,27,15,13,17.00
2018,04,27,15,14,17.00
2018,04,27,15,15,17.00
2018,04,27,15,16,17.10
2018,04,27,15,17,17.10
2018,04,27,15,18,17.20
2018,04,27,15,19,17.20
2018,04,27,15,20,17.20
2018,04,27,15,21,17.30
2018,04,27,15,22,17.30
2018,04,27,15,23,17.30
2018,04,27,15,24,17.30
2018,04,27,15,25,17.30
2018,04,27,15,26,17.30
2018,04,27,15,27,17.30
2018,04,27,15,28,17.30
2018,04,27,15,29,17.30
2018,04,27,15,30,17.30
2018,04,27,15,31,17.30
2018,04,27,15,32,17.30
2018,04,27,15,33,17.30
2018,04,27,15,34,17.30
2018,04,27,15,35,17.30
2018,04,27,15,36,17.30
2018,04,27,15,37,17.20
2018,04,27,15,38,17.20
2018,04,27,15,39,17.20
2018,04,27,15,40,17.20
2018,04,27,15,41,17.10
2018,04,27,15,42,17.00
2018,04,27,15,43,16.90
2018,04,27,15,44,16.90
2018,04,27,15,45,16.80
2018,04,27,15,46,16.80
2018,04,27,15,47,16.80
2018,04,27,15,48,16.80
2018,04,27,15,49,16.80
2018,04,27,15,50,16.80
2018,04,27,15,51,16.80
2018,04,27,15,52,16.80
2018,04,27,15,53,16.90
2018,04,27,15,54,16.90
2018,04,27,15,55,16.90
2018,04,27,15,56,16.90
2018,04,27,15,57,16.90
2018,04,27,15,58,16.90
2018,04,27,15,59,16.90
2018,04,27,16,00,16.90
2018,04,27,16,01,16.90
2018,04,27,16,02,17.00
2018,04,27,16,03,17.00
2018,04,27,16,04,17.00
2018,04,27,16,05,17.00
2018,04,27,16,06,17.00
2018,04,27,16,07,17.00
2018,04,27,16,08,17.00
2018,04,27,16,09,17.00
2018,04,27,16,10,17.10
2018,04,27,16,11,17.10
2018,04,27,16,12,17.20
2018,04,27,16,13,17.20
2018,04,27,16,14,17.20
2018,04,27,16,15,17.30
2018,04,27,16,16,17.30
2018,04,27,16,17,17.20
2018,04,27,16,18,17.20
2018,04,27,16,19,17.20
2018,04,27,16,20,17.20
2018,04,27,16,21,17.10
2018,04,27,16,22,17.10
2018,04,27,16,23,17.10
2018,04,27,16,24,17.10
2018,04,27,16,25,17.10
2018,04,27,16,26,17.10
2018,04,27,16,27,17.10
2018,04,27,16,28,17.10
2018,04,27,16,29,17.20
2018,04,27,16,30,17.20
2018,04,27,16,31,17.20
2018,04,27,16,32,17.30
2018,04,27,16,33,17.30
2018,04,27,16,34,17.30
2018,04,27,16,35,17.30
2018,04,27,16,36,17.40
2018,04,27,16,37,17.40
2018,04,27,16,38,17.40
2018,04,27,16,39,17.40
2018,04,27,16,40,17.30
2018,04,27,16,41,17.30
2018,04,27,16,42,17.30
2018,04,27,16,43,17.30
2018,04,27,16,44,17.30
2018,04,27,16,45,17.30
2018,04,27,16,46,17.30
2018,04,27,16,47,17.30
2018,04,27,16,48,17.30
2018,04,27,16,49,17.40
2018,04,27,16,50,17.40
2018,04,27,16,51,17.40
2018,04,27,16,52,17.40
2018,04,27,16,53,17.40
2018,04,27,16,54,17.40
2018,04,27,16,55,17.40
2018,04,27,16,56,17.40
2018,04,27,16,57,17.50
2018,04,27,16,58,17.50
2018,04,27,16,59,17.50
2018,04,27,17,00,17.40
2018,04,27,17,01,17.50
2018,04,27,17,02,17.40
2018,04,27,17,03,17.40
2018,04,27,17,04,17.40
2018,04,27,17,05,17.40
2018,04,27,17,06,17.40
2018,04,27,17,07,17.40
2018,04,27,17,08,17.30
2018,04,27,17,09,17.30
2018,04,27,17,10,17.20
2018,04,27,17,11,17.20
2018,04,27,17,12,17.10
2018,04,27,17,13,17.10
2018,04,27,17,14,17.00
2018,04,27,17,15,17.00
2018,04,27,17,16,16.90
2018,04,27,17,17,16.90
2018,04,27,17,18,16.80
2018,04,27,17,19,16.80
2018,04,27,17,20,16.80